Portada
METAR-TAF:

METAR-TAF

Aeroports :

Mora Municipal Airport

Mora, Minnesota, Estats Units d'Amèrica

latitud: 45-53-10N, longitud: 093-16-18W, altitud: 309 m

Observació

L'informe es va fer fa 14 minuts, a les 00:36 UTC
Vent 4 kt del Nord/Nord-Oest
Temperatura -20°C
Humitat 59%
Pressió 1028 hPa
Visibilitat: 16.1 km
Cel clar

METAR: KJMR 200036Z AUTO 33004KT 10SM CLR M20/M26 A3036 RMK AO2

Hora: 18:50 (00:50 UTC)


TAF: manca

Observacions i pronòstics meteorològics de més de 4000 aeroports (METAR i TAF).

Les estacions disponibles són els punts grocs i vermells al mapa.

Posi el ratolí al punt desitjat per veure el nom de l'estació.

Feu clic per veure les observacions i els pronòstics meteorològics.

Per canviar el mapa: feu clic els botons verds amb una creu de color negre per apropar; al botó verd amb un guió per allunyar la imatge; o en les fletxes verdes per a mapes adjacents.


METAR-TAF: